Flag for U.S.A. Weather past 2 weeks in Santa Rosa, California, U.S.A.

Now
66 °F

Passing clouds.


Feels Like: 66 °F
Forecast: 47 / 67 °F
Wind: 14 mph from Northwest

Location: Santa Rosa Sonoma County Airport

Current Time: Mar 31, 2015 at 1:58:45 PM

Latest Report: Mar 31, 2015 at 12:53 PM


Visibility: 10 mi

Pressure: 30.14 "Hg

Humidity: 40%

Dew point: 41 °F

Location of Santa RosaLocation

Historic Weather in Santa Rosa — Graph

°F

Santa Rosa temperature yesterday

Maximum temperature yesterday: 75 °F (at 2:53 PM)
Minimum temperature yesterday: 44 °F (at 6:53 AM)
Average temperature yesterday: 59 °F

Past Weeks' High & Low Weather Summary

 TemperatureHumidityPressure
High83 °F (Mar 26, 3:53 PM)100% (Mar 17, 6:53 AM)30.28 "Hg (Mar 17, 6:53 AM)
Low41 °F (Mar 19, 6:53 AM)25% (Mar 29, 3:53 PM)29.94 "Hg (Mar 19, 6:53 PM)
Average58 °F73%30.09 "Hg
* Reported Mar 16 12:53 PM — Mar 31 12:53 PM, Santa Rosa, Weather by CustomWeather, © 2015

Note: Actual official high and low records may vary slightly from our data, if they occured in-between our weather recording intervals... More about our weather records

Advertising

Santa Rosa weather history for previous 24 hours

 ConditionsComfort  
Time TempWeatherWind HumidityBarometerVisibility
12:53 PM
Tue, Mar 31
66 °FPassing clouds.14 mph40%30.14 "Hg10 mi
11:53 AM66 °FPassing clouds.12 mph45%30.15 "Hg10 mi
10:53 AM63 °FScattered clouds.12 mph52%30.14 "Hg10 mi
9:53 AM60 °FScattered clouds.13 mph62%30.13 "Hg10 mi
8:53 AM58 °FScattered clouds.12 mph70%30.11 "Hg10 mi
7:53 AM51 °FPassing clouds.5 mph83%30.10 "Hg10 mi
6:53 AM50 °FPassing clouds.No wind80%30.07 "Hg10 mi
5:53 AM48 °FClear.3 mph86%30.06 "Hg10 mi
4:53 AM48 °FClear.No wind83%30.05 "Hg10 mi
3:53 AM48 °FClear.No wind83%30.04 "Hg10 mi
2:53 AM50 °FClear.3 mph77%30.04 "Hg10 mi
1:53 AM47 °FClear.No wind86%30.04 "Hg10 mi
12:53 AM53 °FClear.5 mph69%30.04 "Hg10 mi
11:53 PM
Mon, Mar 30
55 °FClear.5 mph64%30.03 "Hg10 mi
10:53 PM56 °FLight rain. Clear.9 mph62%30.03 "Hg10 mi
9:53 PM53 °FClear.No wind77%30.03 "Hg10 mi
8:53 PM55 °FClear.3 mph77%30.01 "Hg10 mi
7:53 PM58 °FSunny.3 mph72%29.98 "Hg10 mi
6:53 PM62 °FPartly sunny.6 mph65%29.96 "Hg10 mi
5:53 PM66 °FPartly sunny.8 mph56%29.96 "Hg10 mi
4:53 PM70 °FScattered clouds.13 mph53%29.95 "Hg10 mi
3:53 PM75 °FScattered clouds.12 mph43%29.96 "Hg10 mi
2:53 PM75 °FScattered clouds.8 mph43%29.98 "Hg10 mi
1:53 PM74 °FScattered clouds.8 mph45%29.99 "Hg10 mi
Weather by CustomWeather, © 2015

See weather overviewHow to use our weather pages